Location: Unspecified
(0.0000°N, 0.0000°E)
Time: 20:59:05
(UTC+00:00)

LAPAN A2 - Pass Details

Date: 09 June 2023
Orbit: 628 x 647 km, 6.0° (Epoch: 01 October)

Event Time Altitude Azimuth Distance (km) Brightness Sun altitude
Exits shadow 05:21:03 - 270° (W) 2,089 ? -8.8°
Reaches altitude 10° 05:21:19 10° 270° (W) 1,986 ? -8.7°
Maximum altitude 05:25:59 71° 186° (S) 660 ? -7.6°
Drops below altitude 10° 05:30:39 10° 102° (ESE) 1,991 ? -6.6°
Sets 05:33:02 0° 100° (E) 2,900 ? -6.0°
